QTR95K EKCH-OTHH

Flight info

Callsign QTR95K
Flight time N/A
Altitude 35000
Route SALLO M44 KOGIM M725 MASOR DCT BODLA DCT DISEK DCT REGLI DCT LITKU DCT BUDOP DCT NAVOD/N0481F370 DCT GASRU DCT ETOPO DCT ADORU UG80 EKI UN739 TUMER UT38 VESAR DCT NIKAS R785 RASLI P559 TRF R23 NEVOL N318 TAMRO T503 KSA N687 KINIB Z511 GISRA L681 ORLEK
Aircraft B77W/H-SDE1E2E3FGHIJ2J3J4J5M1RWXY/LB1D1

Departure

Time 2026-05-04 18:53
Airport Copenhagen Kastrup Airport (EKCH)

Arrival

Time N/A
Airport Hamad International Airport (OTHH)
Time Latitude Longitude Altitude Speed Heading
2026-05-04 18:02 55.62646 12.65051 29 ft 0 kts 280°
2026-05-04 18:36 55.62642 12.65088 28 ft 4 kts 280°
2026-05-04 18:36 55.62640 12.65134 27 ft 4 kts 254°
2026-05-04 18:37 55.62645 12.65166 27 ft 4 kts 282°
2026-05-04 18:37 55.62634 12.65184 25 ft 4 kts
2026-05-04 18:37 55.62607 12.65177 25 ft 4 kts 10°
2026-05-04 18:37 55.62598 12.65174 25 ft 2 kts 10°
2026-05-04 18:40 55.62619 12.65181 29 ft 7 kts 10°
2026-05-04 18:40 55.62661 12.65208 29 ft 6 kts 37°
2026-05-04 18:40 55.62665 12.65277 29 ft 6 kts 112°
2026-05-04 18:41 55.62631 12.65330 29 ft 7 kts 152°
2026-05-04 18:41 55.62584 12.65333 29 ft 7 kts 185°
2026-05-04 18:41 55.62531 12.65329 29 ft 8 kts 181°
2026-05-04 18:41 55.62475 12.65330 29 ft 8 kts 179°
2026-05-04 18:42 55.62419 12.65331 29 ft 8 kts 179°
2026-05-04 18:42 55.62363 12.65332 29 ft 8 kts 179°
2026-05-04 18:42 55.62310 12.65309 29 ft 8 kts 220°
2026-05-04 18:42 55.62290 12.65214 29 ft 8 kts 254°
2026-05-04 18:43 55.62280 12.65112 29 ft 8 kts 273°
2026-05-04 18:43 55.62301 12.65015 29 ft 9 kts 301°
2026-05-04 18:43 55.62333 12.64926 29 ft 9 kts 301°
2026-05-04 18:43 55.62355 12.64830 29 ft 9 kts 273°
2026-05-04 18:44 55.62335 12.64732 29 ft 9 kts 245°
2026-05-04 18:44 55.62324 12.64693 29 ft 0 kts 245°
2026-05-04 18:44 55.62320 12.64677 29 ft 3 kts 245°
2026-05-04 18:45 55.62311 12.64640 28 ft 3 kts 245°
2026-05-04 18:45 55.62304 12.64613 28 ft 0 kts 245°
2026-05-04 18:48 55.62292 12.64567 28 ft 15 kts 245°
2026-05-04 18:49 55.62235 12.64392 26 ft 16 kts 221°
2026-05-04 18:49 55.62140 12.64295 28 ft 16 kts 204°
2026-05-04 18:49 55.62043 12.64215 28 ft 16 kts 205°
2026-05-04 18:49 55.61942 12.64130 29 ft 16 kts 205°
2026-05-04 18:50 55.61892 12.64088 29 ft 6 kts 205°
2026-05-04 18:50 55.61852 12.64072 29 ft 6 kts 185°
2026-05-04 18:50 55.61810 12.64075 29 ft 6 kts 176°
2026-05-04 18:50 55.61779 12.64079 29 ft 0 kts 176°
2026-05-04 18:51 55.61773 12.64080 29 ft 5 kts 176°
2026-05-04 18:51 55.61715 12.64087 30 ft 9 kts 176°
2026-05-04 18:51 55.61654 12.64087 32 ft 9 kts 189°
2026-05-04 18:52 55.61595 12.64022 31 ft 19 kts 220°
2026-05-04 18:52 55.61336 12.63620 31 ft 87 kts 221°
2026-05-04 18:52 55.60699 12.62631 31 ft 154 kts 222°
2026-05-04 18:52 55.59784 12.61234 254 ft 182 kts 224°
2026-05-04 18:53 55.58837 12.59766 1001 ft 183 kts 223°
2026-05-04 18:53 55.57810 12.58313 1516 ft 198 kts 219°
2026-05-04 18:53 55.56638 12.56784 1794 ft 221 kts 221°
2026-05-04 18:53 55.55369 12.55050 2138 ft 241 kts 214°
2026-05-04 18:54 55.53783 12.53850 2719 ft 254 kts 197°
2026-05-04 18:54 55.52039 12.53180 3471 ft 259 kts 194°
2026-05-04 18:54 55.50288 12.52366 4231 ft 262 kts 201°
2026-05-04 18:54 55.48569 12.51323 5117 ft 262 kts 202°
2026-05-04 18:55 55.46847 12.50252 5985 ft 263 kts 203°
2026-05-04 18:55 55.43224 12.50450 7188 ft 288 kts 148°
2026-05-04 18:55 55.41899 12.53115 7941 ft 296 kts 116°
2026-05-04 18:56 55.41280 12.56585 8553 ft 300 kts 105°
2026-05-04 18:56 55.40719 12.60156 9108 ft 309 kts 108°
2026-05-04 18:56 55.40092 12.63808 9916 ft 310 kts 108°
2026-05-04 18:56 55.39460 12.67478 10492 ft 320 kts 108°
2026-05-04 18:57 55.38794 12.71359 10688 ft 344 kts 108°
2026-05-04 18:57 55.38080 12.75517 10880 ft 367 kts 108°
2026-05-04 18:57 55.37320 12.79940 11090 ft 388 kts 108°
2026-05-04 18:57 55.36534 12.84517 11615 ft 399 kts 108°
2026-05-04 18:58 55.35721 12.89236 12255 ft 407 kts 108°
2026-05-04 18:58 55.34890 12.94035 12998 ft 412 kts 109°
2026-05-04 18:58 55.33970 12.98757 13605 ft 409 kts 117°
2026-05-04 18:58 55.32317 13.02794 13974 ft 410 kts 143°
2026-05-04 18:59 55.29908 13.05301 14693 ft 398 kts 162°
2026-05-04 18:59 55.27342 13.07126 15137 ft 403 kts 160°
2026-05-04 18:59 55.24791 13.09310 15707 ft 412 kts 157°
2026-05-04 18:59 55.22244 13.11656 16477 ft 414 kts 156°
2026-05-04 19:00 55.19687 13.14019 17258 ft 417 kts 156°
2026-05-04 19:00 55.17077 13.16254 17955 ft 419 kts 162°
2026-05-04 19:00 55.14318 13.17883 18574 ft 419 kts 169°
2026-05-04 19:00 55.11557 13.19271 19082 ft 424 kts 165°
2026-05-04 19:01 55.09728 13.20570 19422 ft 432 kts 159°
2026-05-04 19:01 55.07107 13.23158 20063 ft 439 kts 150°
2026-05-04 19:01 55.03700 13.27138 20833 ft 444 kts 152°
2026-05-04 19:01 55.01101 13.29984 21395 ft 448 kts 153°
2026-05-04 19:02 54.98434 13.32828 22028 ft 452 kts 154°
2026-05-04 19:02 54.95759 13.35660 22641 ft 456 kts 154°
2026-05-04 19:02 54.93926 13.37601 23056 ft 459 kts 154°
2026-05-04 19:02 54.91188 13.40507 23617 ft 463 kts 154°
2026-05-04 19:03 54.88423 13.43449 24112 ft 468 kts 154°
2026-05-04 19:03 54.85642 13.46414 24602 ft 471 kts 154°
2026-05-04 19:03 54.82841 13.49403 25108 ft 474 kts 154°
2026-05-04 19:03 54.80018 13.52412 25581 ft 478 kts 155°
2026-05-04 19:04 54.77179 13.55436 26066 ft 481 kts 155°
2026-05-04 19:04 54.74356 13.58436 26458 ft 486 kts 155°
2026-05-04 19:04 54.71419 13.61551 26911 ft 490 kts 156°
2026-05-04 19:04 54.68539 13.64600 27310 ft 494 kts 155°
2026-05-04 19:05 54.65597 13.67711 27758 ft 497 kts 156°
2026-05-04 19:05 54.62637 13.70837 28217 ft 500 kts 156°
2026-05-04 19:05 54.59667 13.73967 28672 ft 502 kts 156°
2026-05-04 19:05 54.56638 13.77155 29097 ft 505 kts 156°
2026-05-04 19:06 54.53662 13.80280 29489 ft 508 kts 156°
2026-05-04 19:06 54.50640 13.83447 29853 ft 511 kts 156°
2026-05-04 19:06 54.47597 13.86632 30229 ft 512 kts 156°
2026-05-04 19:06 54.44567 13.89801 30701 ft 509 kts 155°
2026-05-04 19:07 54.41555 13.92949 31283 ft 505 kts 155°
2026-05-04 19:07 54.38562 13.96071 31773 ft 502 kts 155°
2026-05-04 19:07 54.35581 13.99171 32173 ft 501 kts 155°
2026-05-04 19:07 54.32597 14.02265 32540 ft 501 kts 155°
2026-05-04 19:08 54.29609 14.05356 32934 ft 501 kts 155°
2026-05-04 19:08 54.26636 14.08427 33376 ft 499 kts 155°
2026-05-04 19:08 54.23664 14.11494 33804 ft 498 kts 155°
2026-05-04 19:08 54.20702 14.14545 34171 ft 496 kts 155°
2026-05-04 19:09 54.17749 14.17582 34481 ft 496 kts 155°
2026-05-04 19:09 54.14791 14.20617 34654 ft 498 kts 154°
2026-05-04 19:09 54.11816 14.23662 34854 ft 500 kts 154°
2026-05-04 19:09 54.08860 14.26683 34906 ft 503 kts 154°
2026-05-04 19:10 54.02852 14.32818 34959 ft 499 kts 154°
2026-05-04 19:10 53.96921 14.38858 34964 ft 497 kts 154°
2026-05-04 19:11 53.91044 14.44813 34976 ft 498 kts 154°
2026-05-04 19:11 53.85088 14.50827 34957 ft 499 kts 154°
2026-05-04 19:12 53.76117 14.59853 34988 ft 500 kts 154°
2026-05-04 19:13 53.70132 14.65850 34990 ft 501 kts 154°
2026-05-04 19:13 53.64133 14.71841 34980 ft 501 kts 154°
2026-05-04 19:14 53.58138 14.77808 34968 ft 500 kts 154°
2026-05-04 19:14 53.52155 14.83744 34987 ft 499 kts 154°
2026-05-04 19:15 53.46181 14.89651 34992 ft 498 kts 155°
2026-05-04 19:15 53.40212 14.95532 34966 ft 497 kts 155°
2026-05-04 19:16 53.34269 15.01369 34961 ft 497 kts 155°
2026-05-04 19:16 53.28332 15.07181 34941 ft 496 kts 154°
2026-05-04 19:17 53.22373 15.12996 34955 ft 495 kts 155°
2026-05-04 19:17 53.16458 15.18750 34956 ft 495 kts 155°
2026-05-04 19:18 53.10510 15.24515 34953 ft 495 kts 155°
2026-05-04 19:18 53.04556 15.30268 34949 ft 495 kts 155°
2026-05-04 19:19 52.98611 15.35995 34941 ft 494 kts 154°
2026-05-04 19:19 52.92675 15.41696 34943 ft 492 kts 155°
2026-05-04 19:20 52.86758 15.47360 34947 ft 490 kts 155°
2026-05-04 19:20 52.80853 15.52994 34951 ft 489 kts 155°
2026-05-04 19:21 52.74963 15.58594 34952 ft 488 kts 155°
2026-05-04 19:21 52.69080 15.64171 34930 ft 488 kts 155°
2026-05-04 19:22 52.63195 15.69733 34947 ft 487 kts 155°
2026-05-04 19:22 52.57305 15.75281 34947 ft 488 kts 155°
2026-05-04 19:23 52.51396 15.80830 34952 ft 489 kts 155°
2026-05-04 19:23 52.45478 15.86371 34947 ft 491 kts 155°
2026-05-04 19:24 52.39534 15.91918 34944 ft 492 kts 155°
2026-05-04 19:24 52.33588 15.97450 34943 ft 492 kts 155°
2026-05-04 19:25 52.27639 16.02969 34940 ft 492 kts 155°
2026-05-04 19:25 52.21688 16.08473 34942 ft 492 kts 155°
2026-05-04 19:26 52.15772 16.13927 34944 ft 492 kts 155°
2026-05-04 19:26 52.09809 16.19405 34933 ft 492 kts 154°
2026-05-04 19:27 52.03851 16.24863 34940 ft 492 kts 154°
2026-05-04 19:27 51.97887 16.30310 34942 ft 492 kts 155°
2026-05-04 19:28 51.91912 16.35750 34932 ft 493 kts 155°
2026-05-04 19:28 51.85957 16.41155 34942 ft 493 kts 155°
2026-05-04 19:29 51.79979 16.46564 34944 ft 493 kts 154°
2026-05-04 19:29 51.73993 16.51964 34940 ft 493 kts 154°
2026-05-04 19:30 51.68035 16.57324 34941 ft 492 kts 154°
2026-05-04 19:30 51.62055 16.62685 34942 ft 492 kts 155°
2026-05-04 19:31 51.56070 16.68035 34925 ft 492 kts 154°
2026-05-04 19:31 51.50110 16.73346 34933 ft 492 kts 154°
2026-05-04 19:32 51.44141 16.78650 34936 ft 492 kts 154°
2026-05-04 19:32 51.38172 16.83937 34932 ft 492 kts 154°
2026-05-04 19:33 51.32175 16.89234 34936 ft 492 kts 154°
2026-05-04 19:33 51.26176 16.94514 34925 ft 492 kts 154°
2026-05-04 19:34 51.20183 16.99776 34938 ft 491 kts 154°
2026-05-04 19:34 51.14191 17.05021 34935 ft 491 kts 154°
2026-05-04 19:35 51.08207 17.10243 34940 ft 490 kts 154°
2026-05-04 19:35 51.02224 17.15449 34938 ft 490 kts 154°
2026-05-04 19:36 50.96239 17.20640 34935 ft 490 kts 154°